| time (UTC) | temp C | wind direction | speed KPH | gust KPH | rain 1hr cm | rain 24hr cm | rain mn cm | humidity % | barometer mb |
| 20260906080024 | 27 | 77 | 12.9 | 25.7 | 0.00 | 0.00 | 0.00 | 49 | 1023.2 |
| 20260906075523 | 27 | 66 | 11.3 | 25.7 | 0.00 | 0.00 | 0.00 | 50 | 1023.2 |
| 20260906075023 | 27 | 75 | 11.3 | 30.6 | 0.00 | 0.00 | 0.00 | 50 | 1023.2 |
| 20260906074524 | 26 | 81 | 12.9 | 30.6 | 0.00 | 0.00 | 0.00 | 50 | 1022.9 |
| 20260906074025 | 26 | 67 | 11.3 | 30.6 | 0.00 | 0.00 | 0.00 | 51 | 1022.9 |
| 20260906073523 | 26 | 61 | 11.3 | 27.4 | 0.00 | 0.00 | 0.00 | 50 | 1023.0 |
| 20260906073024 | 26 | 70 | 14.5 | 30.6 | 0.00 | 0.00 | 0.00 | 51 | 1023.2 |
| 20260906072523 | 26 | 75 | 14.5 | 30.6 | 0.00 | 0.00 | 0.00 | 51 | 1023.1 |
| 20260906072024 | 26 | 65 | 11.3 | 30.6 | 0.00 | 0.00 | 0.00 | 51 | 1023.0 |
| 20260906071523 | 26 | 61 | 12.9 | 30.6 | 0.00 | 0.00 | 0.00 | 52 | 1023.1 |
| 20260906070523 | 26 | 68 | 11.3 | 25.7 | 0.00 | 0.00 | 0.00 | 52 | 1022.8 |
| 20260906070023 | 26 | 74 | 9.7 | 25.7 | 0.00 | 0.00 | 0.00 | 52 | 1022.9 |
| 20260906065524 | 26 | 74 | 8.0 | 20.9 | 0.00 | 0.00 | 0.00 | 53 | 1022.8 |
| 20260906065023 | 26 | 68 | 8.0 | 25.7 | 0.00 | 0.00 | 0.00 | 54 | 1022.8 |
| 20260906064523 | 25 | 64 | 8.0 | 25.7 | 0.00 | 0.00 | 0.00 | 55 | 1022.7 |
| 20260906063523 | 25 | 75 | 6.4 | 20.9 | 0.00 | 0.00 | 0.00 | 56 | 1023.0 |
| 20260906063024 | 25 | 73 | 4.8 | 16.1 | 0.00 | 0.00 | 0.00 | 56 | 1022.8 |
| 20260906062523 | 25 | 70 | 8.0 | 20.9 | 0.00 | 0.00 | 0.00 | 57 | 1022.6 |
| 20260906061525 | 25 | 73 | 6.4 | 20.9 | 0.00 | 0.00 | 0.00 | 57 | 1022.6 |
| 20260906061025 | 24 | 71 | 6.4 | 14.5 | 0.00 | 0.00 | 0.00 | 59 | 1022.5 |
| 20260906060523 | 24 | 63 | 6.4 | 16.1 | 0.00 | 0.00 | 0.00 | 60 | 1022.6 |
| 20260906060024 | 24 | 62 | 4.8 | 16.1 | 0.00 | 0.00 | 0.00 | 60 | 1022.2 |
| 20260906055024 | 23 | 70 | 6.4 | 14.5 | 0.00 | 0.00 | 0.00 | 62 | 1022.4 |
| 20260906054523 | 23 | 65 | 4.8 | 14.5 | 0.00 | 0.00 | 0.00 | 63 | 1022.3 |
| 20260906054023 | 23 | 54 | 4.8 | 12.9 | 0.00 | 0.00 | 0.00 | 64 | 1022.1 |
| 20260906053523 | 23 | 55 | 4.8 | 12.9 | 0.00 | 0.00 | 0.00 | 64 | 1022.3 |
| 20260906053023 | 23 | 61 | 4.8 | 12.9 | 0.00 | 0.00 | 0.00 | 64 | 1022.2 |
| 20260906052027 | 22 | 63 | 4.8 | 12.9 | 0.00 | 0.00 | 0.00 | 65 | 1022.4 |
| 20260906051525 | 22 | 67 | 3.2 | 12.9 | 0.00 | 0.00 | 0.00 | 65 | 1022.2 |
| 20260906051024 | 22 | 61 | 3.2 | 16.1 | 0.00 | 0.00 | 0.00 | 65 | 1022.0 |
| 20260906050522 | 22 | 54 | 4.8 | 16.1 | 0.00 | 0.00 | 0.00 | 66 | 1021.9 |
| 20260906045523 | 22 | 50 | 4.8 | 12.9 | 0.00 | 0.00 | 0.00 | 66 | 1021.9 |
| 20260906045026 | 22 | 48 | 4.8 | 12.9 | 0.00 | 0.00 | 0.00 | 67 | 1021.7 |
| 20260906044523 | 22 | 62 | 3.2 | 12.9 | 0.00 | 0.00 | 0.00 | 67 | 1021.5 |
| 20260906044024 | 22 | 68 | 3.2 | 9.7 | 0.00 | 0.00 | 0.00 | 66 | 1021.7 |
| 20260906043523 | 22 | 68 | 3.2 | 9.7 | 0.00 | 0.00 | 0.00 | 66 | 1021.8 |
| 20260906043024 | 22 | 65 | 3.2 | 9.7 | 0.00 | 0.00 | 0.00 | 66 | 1021.6 |
| 20260906042023 | 22 | 62 | 3.2 | 9.7 | 0.00 | 0.00 | 0.00 | 66 | 1021.7 |
| 20260906041524 | 22 | 63 | 3.2 | 9.7 | 0.00 | 0.00 | 0.00 | 66 | 1021.4 |
| 20260906041024 | 22 | 61 | 1.6 | 8.0 | 0.00 | 0.00 | 0.00 | 66 | 1021.5 |
| 20260906040524 | 22 | 64 | 1.6 | 9.7 | 0.00 | 0.00 | 0.00 | 67 | 1021.5 |
| 20260906040024 | 22 | 66 | 1.6 | 9.7 | 0.00 | 0.00 | 0.00 | 68 | 1021.6 |
| 20260906035523 | 22 | 65 | 1.6 | 4.8 | 0.00 | 0.00 | 0.00 | 69 | 1021.5 |
| 20260906035023 | 22 | 50 | 1.6 | 8.0 | 0.00 | 0.00 | 0.00 | 69 | 1021.3 |
| 20260906034523 | 22 | 53 | 3.2 | 8.0 | 0.00 | 0.00 | 0.00 | 69 | 1021.4 |
| 20260906033523 | 22 | 67 | 3.2 | 8.0 | 0.00 | 0.00 | 0.00 | 69 | 1021.4 |
| 20260906033023 | 22 | 65 | 3.2 | 8.0 | 0.00 | 0.00 | 0.00 | 69 | 1021.4 |
| 20260906032523 | 22 | 60 | 3.2 | 8.0 | 0.00 | 0.00 | 0.00 | 69 | 1021.3 |
| 20260906032023 | 22 | 62 | 1.6 | 8.0 | 0.00 | 0.00 | 0.00 | 68 | 1021.2 |
| 20260906031524 | 22 | 68 | 3.2 | 9.7 | 0.00 | 0.00 | 0.00 | 68 | 1021.1 |
| 20260906031024 | 22 | 66 | 3.2 | 9.7 | 0.00 | 0.00 | 0.00 | 68 | 1021.1 |
| 20260906030523 | 22 | 62 | 3.2 | 8.0 | 0.00 | 0.00 | 0.00 | 68 | 1021.1 |
| 20260906025523 | 22 | 70 | 1.6 | 8.0 | 0.00 | 0.00 | 0.00 | 69 | 1021.1 |
| 20260906025023 | 22 | 64 | 1.6 | 8.0 | 0.00 | 0.00 | 0.00 | 69 | 1020.9 |
| 20260906024024 | 23 | 60 | 1.6 | 8.0 | 0.00 | 0.00 | 0.00 | 69 | 1020.8 |
| 20260906023523 | 23 | 61 | 3.2 | 9.7 | 0.00 | 0.00 | 0.00 | 69 | 1020.8 |
| 20260906022522 | 23 | 56 | 3.2 | 9.7 | 0.00 | 0.00 | 0.00 | 69 | 1020.8 |
| 20260906022024 | 23 | 56 | 3.2 | 9.7 | 0.00 | 0.00 | 0.00 | 68 | 1020.8 |
| 20260906021523 | 23 | 56 | 3.2 | 9.7 | 0.00 | 0.00 | 0.00 | 68 | 1021.1 |
| 20260906021024 | 23 | 57 | 1.6 | 9.7 | 0.00 | 0.00 | 0.00 | 69 | 1020.8 |
| 20260906020523 | 23 | 62 | 3.2 | 9.7 | 0.00 | 0.00 | 0.00 | 69 | 1021.0 |
| 20260906020023 | 23 | 66 | 3.2 | 9.7 | 0.00 | 0.00 | 0.00 | 69 | 1020.7 |
| 20260906015524 | 23 | 63 | 3.2 | 9.7 | 0.00 | 0.00 | 0.00 | 69 | 1020.8 |
| 20260906015023 | 23 | 60 | 3.2 | 9.7 | 0.00 | 0.00 | 0.00 | 68 | 1020.6 |
| 20260906014523 | 23 | 60 | 3.2 | 9.7 | 0.00 | 0.00 | 0.00 | 69 | 1020.7 |
| 20260906013523 | 23 | 55 | 3.2 | 9.7 | 0.00 | 0.00 | 0.00 | 68 | 1020.7 |
| 20260906013024 | 23 | 61 | 3.2 | 8.0 | 0.00 | 0.00 | 0.00 | 69 | 1020.8 |
| 20260906012024 | 23 | 58 | 3.2 | 9.7 | 0.00 | 0.00 | 0.00 | 69 | 1020.6 |
| 20260906011524 | 23 | 57 | 3.2 | 9.7 | 0.00 | 0.00 | 0.00 | 69 | 1020.6 |
| 20260906011024 | 23 | 64 | 3.2 | 9.7 | 0.00 | 0.00 | 0.00 | 70 | 1020.5 |
| 20260906010522 | 23 | 69 | 3.2 | 9.7 | 0.00 | 0.00 | 0.00 | 71 | 1020.5 |
| 20260906010025 | 22 | 69 | 3.2 | 8.0 | 0.00 | 0.00 | 0.00 | 71 | 1020.6 |
| 20260906005024 | 22 | 63 | 1.6 | 4.8 | 0.00 | 0.00 | 0.00 | 73 | 1020.5 |
| 20260906004524 | 22 | 60 | 1.6 | 4.8 | 0.00 | 0.00 | 0.00 | 74 | 1020.5 |
| 20260906003523 | 22 | 58 | 0.0 | 4.8 | 0.00 | 0.00 | 0.00 | 75 | 1020.6 |
| 20260906003023 | 22 | 62 | 0.0 | 4.8 | 0.00 | 0.00 | 0.00 | 75 | 1020.7 |
| 20260906002523 | 22 | 72 | 0.0 | 4.8 | 0.00 | 0.00 | 0.00 | 75 | 1020.6 |
| 20260906002023 | 22 | 63 | 1.6 | 4.8 | 0.00 | 0.00 | 0.00 | 75 | 1020.4 |
| 20260906001523 | 22 | 48 | 1.6 | 4.8 | 0.00 | 0.00 | 0.00 | 75 | 1020.6 |
| 20260906001024 | 22 | 47 | 1.6 | 4.8 | 0.00 | 0.00 | 0.00 | 75 | 1020.6 |
| 20260906000523 | 22 | 43 | 1.6 | 8.0 | 0.00 | 0.00 | 0.00 | 75 | 1020.6 |
| 20260906000028 | 22 | 34 | 1.6 | 8.0 | 0.00 | 0.00 | 0.00 | 75 | 1020.6 |
| 20260905235524 | 22 | 54 | 1.6 | 9.7 | 0.00 | 0.00 | 0.00 | 74 | 1020.5 |
| 20260905235027 | 22 | 71 | 3.2 | 9.7 | 0.00 | 0.00 | 0.00 | 74 | 1020.5 |
| 20260905234522 | 22 | 67 | 3.2 | 8.0 | 0.00 | 0.00 | 0.00 | 73 | 1020.3 |
| 20260905234023 | 22 | 64 | 1.6 | 8.0 | 0.00 | 0.00 | 0.00 | 73 | 1020.2 |
| 20260905233522 | 22 | 62 | 1.6 | 8.0 | 0.00 | 0.00 | 0.00 | 72 | 1020.2 |
| 20260905233024 | 22 | 54 | 1.6 | 4.8 | 0.00 | 0.00 | 0.00 | 72 | 1020.3 |
| 20260905232522 | 22 | 48 | 0.0 | 4.8 | 0.00 | 0.00 | 0.00 | 70 | 1020.4 |
| 20260905232023 | 22 | 65 | 1.6 | 4.8 | 0.00 | 0.00 | 0.00 | 69 | 1020.5 |
| 20260905231524 | 22 | 47 | 1.6 | 4.8 | 0.00 | 0.00 | 0.00 | 68 | 1020.3 |
| 20260905231023 | 22 | 17 | 1.6 | 8.0 | 0.00 | 0.00 | 0.00 | 68 | 1020.4 |
| 20260905230522 | 22 | 18 | 0.0 | 8.0 | 0.00 | 0.00 | 0.00 | 69 | 1020.2 |
| 20260905230024 | 22 | 44 | 0.0 | 8.0 | 0.00 | 0.00 | 0.00 | 69 | 1020.3 |
| 20260905225522 | 22 | 61 | 1.6 | 4.8 | 0.00 | 0.00 | 0.00 | 69 | 1020.4 |
| 20260905225023 | 23 | 59 | 1.6 | 4.8 | 0.00 | 0.00 | 0.00 | 68 | 1020.3 |
| 20260905224522 | 23 | 53 | 1.6 | 9.7 | 0.00 | 0.00 | 0.00 | 67 | 1020.1 |
| 20260905223523 | 23 | 72 | 3.2 | 8.0 | 0.00 | 0.00 | 0.00 | 65 | 1019.9 |
| 20260905221525 | 23 | 60 | 1.6 | 4.8 | 0.00 | 0.00 | 0.00 | 64 | 1019.7 |
| 20260905221024 | 23 | 53 | 1.6 | 8.0 | 0.00 | 0.00 | 0.00 | 63 | 1019.6 |
| 20260905220524 | 24 | 65 | 1.6 | 8.0 | 0.00 | 0.00 | 0.00 | 62 | 1019.9 |
| 20260905220045 | 24 | 63 | 1.6 | 8.0 | 0.00 | 0.00 | 0.00 | 61 | 1019.8 |
| 20260905215523 | 24 | 69 | 1.6 | 8.0 | 0.00 | 0.00 | 0.00 | 61 | 1019.7 |
| 20260905215023 | 24 | 73 | 1.6 | 8.0 | 0.00 | 0.00 | 0.00 | 61 | 1019.9 |
| 20260905214522 | 24 | 66 | 1.6 | 4.8 | 0.00 | 0.00 | 0.00 | 62 | 1019.6 |
| 20260905214023 | 24 | 71 | 1.6 | 8.0 | 0.00 | 0.00 | 0.00 | 62 | 1019.6 |
| 20260905213523 | 24 | 72 | 1.6 | 8.0 | 0.00 | 0.00 | 0.00 | 62 | 1019.6 |
| 20260905213023 | 24 | 68 | 1.6 | 8.0 | 0.00 | 0.00 | 0.00 | 62 | 1019.6 |
| 20260905212523 | 24 | 70 | 1.6 | 8.0 | 0.00 | 0.00 | 0.00 | 62 | 1019.6 |
| 20260905212023 | 25 | 73 | 1.6 | 8.0 | 0.00 | 0.00 | 0.00 | 62 | 1019.7 |
| 20260905211523 | 25 | 67 | 3.2 | 8.0 | 0.00 | 0.00 | 0.00 | 62 | 1019.7 |
| 20260905211027 | 25 | 64 | 3.2 | 8.0 | 0.00 | 0.00 | 0.00 | 62 | 1019.6 |
| 20260905210024 | 25 | 75 | 3.2 | 12.9 | 0.00 | 0.00 | 0.00 | 62 | 1019.5 |
| 20260905205022 | 25 | 56 | 3.2 | 9.7 | 0.00 | 0.00 | 0.00 | 63 | 1019.6 |
| 20260905204024 | 25 | 67 | 3.2 | 9.7 | 0.00 | 0.00 | 0.00 | 63 | 1019.7 |
| 20260905203522 | 25 | 69 | 3.2 | 8.0 | 0.00 | 0.00 | 0.00 | 64 | 1019.8 |
| 20260905203023 | 25 | 61 | 3.2 | 12.9 | 0.00 | 0.00 | 0.00 | 65 | 1019.6 |
| 20260905202522 | 25 | 60 | 3.2 | 12.9 | 0.00 | 0.00 | 0.00 | 67 | 1019.4 |
| 20260905201522 | 25 | 67 | 4.8 | 12.9 | 0.00 | 0.00 | 0.00 | 68 | 1019.3 |
| 20260905201025 | 25 | 67 | 3.2 | 12.9 | 0.00 | 0.00 | 0.00 | 69 | 1019.3 |
| 20260905200522 | 25 | 68 | 1.6 | 9.7 | 0.00 | 0.00 | 0.00 | 77 | 1019.2 |
| 20260905200024 | 25 | 68 | 1.6 | 4.8 | 0.00 | 0.00 | 0.00 | 80 | 1019.2 |
| 20260905195523 | 25 | 61 | 0.0 | 3.2 | 0.00 | 0.00 | 0.00 | 81 | 1019.3 |
| 20260905195024 | 25 | 59 | 0.0 | 4.8 | 0.00 | 0.00 | 0.00 | 81 | 1019.1 |
| 20260905194524 | 25 | 69 | 0.0 | 4.8 | 0.00 | 0.00 | 0.00 | 81 | 1018.9 |
| 20260905194024 | 25 | 76 | 1.6 | 4.8 | 0.00 | 0.00 | 0.00 | 81 | 1019.0 |
| 20260905193522 | 25 | 73 | 0.0 | 4.8 | 0.00 | 0.00 | 0.00 | 81 | 1019.0 |
| 20260905193024 | 25 | 68 | 0.0 | 3.2 | 0.00 | 0.00 | 0.00 | 81 | 1019.0 |
| 20260905192522 | 25 | 0 | 0.0 | 0.0 | 0.00 | 0.00 | 0.00 | 82 | 1018.8 |
| 20260905192023 | 25 | 86 | 0.0 | 3.2 | 0.00 | 0.00 | 0.00 | 81 | 1018.6 |
| 20260905191524 | 25 | 73 | 0.0 | 3.2 | 0.00 | 0.00 | 0.00 | 81 | 1018.6 |
| 20260905191025 | 25 | 76 | 1.6 | 8.0 | 0.00 | 0.00 | 0.00 | 81 | 1018.4 |
| 20260905190523 | 25 | 74 | 1.6 | 8.0 | 0.00 | 0.00 | 0.00 | 81 | 1018.7 |
| 20260905190023 | 25 | 68 | 1.6 | 8.0 | 0.00 | 0.00 | 0.00 | 80 | 1018.5 |
| 20260905185523 | 25 | 65 | 1.6 | 4.8 | 0.00 | 0.00 | 0.00 | 80 | 1018.5 |
| 20260905185023 | 25 | 72 | 0.0 | 3.2 | 0.00 | 0.00 | 0.00 | 80 | 1018.5 |
| 20260905184523 | 25 | 72 | 1.6 | 4.8 | 0.00 | 0.00 | 0.00 | 79 | 1018.4 |
| 20260905183522 | 26 | 68 | 1.6 | 4.8 | 0.00 | 0.00 | 0.00 | 79 | 1018.3 |
| 20260905183026 | 26 | 68 | 1.6 | 4.8 | 0.00 | 0.00 | 0.00 | 78 | 1018.2 |
| 20260905182023 | 26 | 72 | 0.0 | 4.8 | 0.00 | 0.00 | 0.00 | 77 | 1017.7 |
| 20260905181523 | 26 | 72 | 0.0 | 4.8 | 0.00 | 0.00 | 0.00 | 76 | 1017.8 |
| 20260905181023 | 26 | 214 | 0.0 | 3.2 | 0.00 | 0.00 | 0.00 | 76 | 1017.8 |
| 20260905180523 | 26 | 226 | 0.0 | 4.8 | 0.00 | 0.00 | 0.00 | 75 | 1017.7 |
| 20260905180023 | 26 | 233 | 0.0 | 4.8 | 0.00 | 0.00 | 0.00 | 74 | 1017.7 |
| 20260905175522 | 27 | 0 | 0.0 | 0.0 | 0.00 | 0.00 | 0.00 | 73 | 1017.6 |
| 20260905175023 | 27 | 54 | 0.0 | 3.2 | 0.00 | 0.00 | 0.00 | 72 | 1017.5 |
| 20260905174522 | 27 | 55 | 0.0 | 4.8 | 0.00 | 0.00 | 0.00 | 71 | 1017.3 |
| 20260905173523 | 28 | 55 | 0.0 | 4.8 | 0.00 | 0.00 | 0.00 | 68 | 1017.3 |
| 20260905173022 | 28 | 50 | 0.0 | 3.2 | 0.00 | 0.00 | 0.00 | 66 | 1017.0 |
| 20260905172523 | 28 | 0 | 0.0 | 0.0 | 0.00 | 0.00 | 0.00 | 60 | 1017.1 |
| 20260905172022 | 28 | 0 | 0.0 | 0.0 | 0.00 | 0.00 | 0.00 | 59 | 1017.0 |
| 20260905171522 | 29 | 0 | 0.0 | 0.0 | 0.00 | 0.00 | 0.00 | 58 | 1016.9 |
| 20260905171023 | 29 | 0 | 0.0 | 0.0 | 0.00 | 0.00 | 0.00 | 58 | 1016.7 |
| 20260905170530 | 29 | 0 | 0.0 | 0.0 | 0.00 | 0.00 | 0.00 | 57 | 1016.8 |
| 20260905170024 | 29 | 0 | 0.0 | 0.0 | 0.00 | 0.00 | 0.00 | 56 | 1016.7 |
| 20260905165522 | 30 | 235 | 0.0 | 3.2 | 0.00 | 0.00 | 0.00 | 57 | 1016.7 |
| 20260905165022 | 30 | 237 | 0.0 | 3.2 | 0.00 | 0.00 | 0.00 | 56 | 1016.5 |
| 20260905164522 | 30 | 233 | 0.0 | 3.2 | 0.00 | 0.00 | 0.00 | 56 | 1016.7 |
| 20260905164022 | 30 | 239 | 0.0 | 3.2 | 0.00 | 0.00 | 0.00 | 55 | 1016.6 |
| 20260905163023 | 30 | 230 | 0.0 | 3.2 | 0.00 | 0.00 | 0.00 | 55 | 1016.4 |
| 20260905162523 | 30 | 233 | 0.0 | 4.8 | 0.00 | 0.00 | 0.00 | 54 | 1016.5 |
| 20260905162023 | 30 | 240 | 1.6 | 4.8 | 0.00 | 0.00 | 0.00 | 55 | 1016.4 |
| 20260905161523 | 30 | 251 | 1.6 | 4.8 | 0.00 | 0.00 | 0.00 | 55 | 1016.6 |
| 20260905160523 | 31 | 228 | 0.0 | 4.8 | 0.00 | 0.00 | 0.00 | 52 | 1016.4 |
| 20260905160023 | 31 | 91 | 0.0 | 4.8 | 0.00 | 0.00 | 0.00 | 51 | 1016.5 |
| 20260905155522 | 31 | 86 | 1.6 | 8.0 | 0.00 | 0.00 | 0.00 | 52 | 1016.5 |
| 20260905154522 | 32 | 106 | 0.0 | 8.0 | 0.00 | 0.00 | 0.00 | 49 | 1016.3 |
| 20260905154023 | 32 | 238 | 1.6 | 8.0 | 0.00 | 0.00 | 0.00 | 50 | 1016.4 |
| 20260905153523 | 32 | 51 | 1.6 | 4.8 | 0.00 | 0.00 | 0.00 | 50 | 1016.3 |
| 20260905153024 | 32 | 76 | 0.0 | 4.8 | 0.00 | 0.00 | 0.00 | 50 | 1016.0 |
| 20260905152025 | 32 | 49 | 0.0 | 4.8 | 0.00 | 0.00 | 0.00 | 51 | 1016.2 |
| 20260905151522 | 32 | 95 | 1.6 | 4.8 | 0.00 | 0.00 | 0.00 | 50 | 1016.2 |
| 20260905150522 | 32 | 191 | 1.6 | 8.0 | 0.00 | 0.00 | 0.00 | 49 | 1016.3 |
| 20260905150024 | 32 | 232 | 1.6 | 8.0 | 0.00 | 0.00 | 0.00 | 48 | 1016.4 |
| 20260905145024 | 32 | 260 | 1.6 | 8.0 | 0.00 | 0.00 | 0.00 | 47 | 1016.1 |
| 20260905144522 | 31 | 66 | 1.6 | 8.0 | 0.00 | 0.00 | 0.00 | 49 | 1016.1 |
| 20260905144024 | 31 | 58 | 3.2 | 12.9 | 0.00 | 0.00 | 0.00 | 49 | 1016.2 |
| 20260905143522 | 31 | 61 | 3.2 | 12.9 | 0.00 | 0.00 | 0.00 | 49 | 1016.2 |
| 20260905143023 | 32 | 92 | 1.6 | 8.0 | 0.00 | 0.00 | 0.00 | 47 | 1016.2 |
| 20260905142522 | 31 | 78 | 3.2 | 8.0 | 0.00 | 0.00 | 0.00 | 49 | 1015.9 |
| 20260905141521 | 32 | 94 | 1.6 | 4.8 | 0.00 | 0.00 | 0.00 | 49 | 1016.3 |
| 20260905141024 | 32 | 76 | 1.6 | 8.0 | 0.00 | 0.00 | 0.00 | 47 | 1016.2 |
| 20260905140523 | 32 | 58 | 1.6 | 8.0 | 0.00 | 0.00 | 0.00 | 47 | 1016.4 |
| 20260905140024 | 32 | 45 | 1.6 | 8.0 | 0.00 | 0.00 | 0.00 | 48 | 1016.4 |
| 20260905135022 | 32 | 66 | 1.6 | 8.0 | 0.00 | 0.00 | 0.00 | 49 | 1016.4 |
| 20260905134522 | 31 | 67 | 1.6 | 4.8 | 0.00 | 0.00 | 0.00 | 51 | 1016.7 |
| 20260905134022 | 32 | 48 | 1.6 | 8.0 | 0.00 | 0.00 | 0.00 | 48 | 1016.3 |
| 20260905133023 | 32 | 133 | 1.6 | 8.0 | 0.00 | 0.00 | 0.00 | 50 | 1016.4 |
| 20260905132522 | 31 | 79 | 3.2 | 14.5 | 0.00 | 0.00 | 0.00 | 52 | 1016.5 |
| 20260905132023 | 31 | 73 | 3.2 | 14.5 | 0.00 | 0.00 | 0.00 | 54 | 1016.7 |
| 20260905131026 | 32 | 338 | 1.6 | 4.8 | 0.00 | 0.00 | 0.00 | 48 | 1016.7 |
| 20260905130522 | 32 | 266 | 1.6 | 4.8 | 0.00 | 0.00 | 0.00 | 49 | 1016.7 |
| 20260905130027 | 31 | 335 | 1.6 | 9.7 | 0.00 | 0.00 | 0.00 | 48 | 1016.6 |
| 20260905125523 | 31 | 79 | 3.2 | 9.7 | 0.00 | 0.00 | 0.00 | 50 | 1016.8 |
| 20260905125022 | 31 | 221 | 1.6 | 8.0 | 0.00 | 0.00 | 0.00 | 48 | 1016.6 |
| 20260905124521 | 32 | 171 | 1.6 | 4.8 | 0.00 | 0.00 | 0.00 | 48 | 1016.9 |
| 20260905124023 | 31 | 103 | 3.2 | 8.0 | 0.00 | 0.00 | 0.00 | 48 | 1016.9 |
| 20260905123522 | 32 | 248 | 1.6 | 8.0 | 0.00 | 0.00 | 0.00 | 46 | 1016.9 |
| 20260905123022 | 32 | 267 | 1.6 | 9.7 | 0.00 | 0.00 | 0.00 | 46 | 1016.8 |
| 20260905122022 | 31 | 192 | 1.6 | 8.0 | 0.00 | 0.00 | 0.00 | 46 | 1016.9 |
| 20260905121022 | 31 | 83 | 3.2 | 9.7 | 0.00 | 0.00 | 0.00 | 46 | 1017.0 |
| 20260905120521 | 31 | 76 | 3.2 | 9.7 | 0.00 | 0.00 | 0.00 | 47 | 1017.0 |
| 20260905115022 | 31 | 80 | 3.2 | 9.7 | 0.00 | 0.00 | 0.00 | 46 | 1017.1 |
| 20260905114523 | 31 | 105 | 1.6 | 8.0 | 0.00 | 0.00 | 0.00 | 46 | 1017.1 |
| 20260905114023 | 31 | 227 | 1.6 | 8.0 | 0.00 | 0.00 | 0.00 | 46 | 1017.3 |
| 20260905113521 | 31 | 227 | 1.6 | 8.0 | 0.00 | 0.00 | 0.00 | 46 | 1017.1 |
| 20260905113024 | 31 | 86 | 1.6 | 8.0 | 0.00 | 0.00 | 0.00 | 44 | 1017.2 |
| 20260905112523 | 31 | 226 | 1.6 | 8.0 | 0.00 | 0.00 | 0.00 | 45 | 1017.2 |
| 20260905112022 | 31 | 72 | 3.2 | 9.7 | 0.00 | 0.00 | 0.00 | 45 | 1017.3 |
| 20260905111523 | 30 | 58 | 3.2 | 9.7 | 0.00 | 0.00 | 0.00 | 45 | 1017.3 |
| 20260905111023 | 30 | 72 | 1.6 | 8.0 | 0.00 | 0.00 | 0.00 | 46 | 1017.4 |
| 20260905110522 | 30 | 80 | 3.2 | 9.7 | 0.00 | 0.00 | 0.00 | 48 | 1017.4 |
| 20260905105523 | 30 | 56 | 3.2 | 9.7 | 0.00 | 0.00 | 0.00 | 48 | 1017.2 |
| 20260905105022 | 30 | 59 | 1.6 | 9.7 | 0.00 | 0.00 | 0.00 | 49 | 1017.4 |
| 20260905104522 | 30 | 77 | 1.6 | 8.0 | 0.00 | 0.00 | 0.00 | 48 | 1017.3 |
| 20260905104022 | 30 | 257 | 1.6 | 8.0 | 0.00 | 0.00 | 0.00 | 48 | 1017.4 |
| 20260905103022 | 29 | 14 | 3.2 | 8.0 | 0.00 | 0.00 | 0.00 | 46 | 1017.4 |
| 20260905102521 | 29 | 64 | 3.2 | 9.7 | 0.00 | 0.00 | 0.00 | 47 | 1017.3 |
| 20260905102023 | 29 | 67 | 3.2 | 9.7 | 0.00 | 0.00 | 0.00 | 53 | 1017.4 |
| 20260905101523 | 28 | 61 | 3.2 | 9.7 | 0.00 | 0.00 | 0.00 | 54 | 1017.5 |
| 20260905101021 | 28 | 55 | 1.6 | 8.0 | 0.00 | 0.00 | 0.00 | 54 | 1017.5 |
| 20260905100522 | 28 | 79 | 1.6 | 8.0 | 0.00 | 0.00 | 0.00 | 54 | 1017.5 |
| 20260905095521 | 28 | 65 | 1.6 | 4.8 | 0.00 | 0.00 | 0.00 | 55 | 1017.4 |
| 20260905095023 | 28 | 52 | 1.6 | 4.8 | 0.00 | 0.00 | 0.00 | 55 | 1017.5 |
| 20260905094522 | 28 | 63 | 1.6 | 8.0 | 0.00 | 0.00 | 0.00 | 56 | 1017.4 |
| 20260905094022 | 28 | 74 | 1.6 | 8.0 | 0.00 | 0.00 | 0.00 | 54 | 1017.3 |
| 20260905093523 | 28 | 73 | 0.0 | 4.8 | 0.00 | 0.00 | 0.00 | 53 | 1017.6 |
| 20260905093022 | 28 | 82 | 0.0 | 4.8 | 0.00 | 0.00 | 0.00 | 55 | 1017.5 |
| 20260905092521 | 28 | 91 | 1.6 | 4.8 | 0.00 | 0.00 | 0.00 | 55 | 1017.6 |
| 20260905091521 | 28 | 90 | 1.6 | 4.8 | 0.00 | 0.00 | 0.00 | 55 | 1017.7 |
| 20260905091023 | 27 | 82 | 1.6 | 8.0 | 0.00 | 0.00 | 0.00 | 57 | 1017.4 |
| 20260905090522 | 27 | 71 | 1.6 | 8.0 | 0.00 | 0.00 | 0.00 | 60 | 1017.5 |
| 20260905090023 | 27 | 76 | 3.2 | 8.0 | 0.00 | 0.00 | 0.00 | 58 | 1017.4 |
| 20260905085526 | 27 | 76 | 3.2 | 8.0 | 0.00 | 0.00 | 0.00 | 59 | 1017.2 |
| 20260905084521 | 27 | 70 | 1.6 | 4.8 | 0.00 | 0.00 | 0.00 | 59 | 1017.3 |
| 20260905083521 | 27 | 71 | 3.2 | 8.0 | 0.00 | 0.00 | 0.00 | 60 | 1017.1 |
| 20260905083022 | 27 | 75 | 3.2 | 8.0 | 0.00 | 0.00 | 0.00 | 60 | 1017.0 |
| 20260905082521 | 27 | 72 | 1.6 | 8.0 | 0.00 | 0.00 | 0.00 | 59 | 1017.1 |
| 20260905082022 | 27 | 64 | 1.6 | 8.0 | 0.00 | 0.00 | 0.00 | 58 | 1017.1 |
| 20260905081521 | 27 | 73 | 1.6 | 8.0 | 0.00 | 0.00 | 0.00 | 59 | 1017.0 |
| 20260905081022 | 27 | 83 | 1.6 | 8.0 | 0.00 | 0.00 | 0.00 | 59 | 1017.2 |